This demonstration page uses our WeatherBlox Daily Observations layout. Learn more.

Left ArrowRight Arrow

Hourly Observations for December 9, 2022

Temp ( °F °C ) Dew Point ( °F °C ) Humidity (%) Winds ( mph kmh ) Pressure ( in mb ) Visibility ( mi km ) Precip ( " mm )
12:18 am 00:18 Mostly Cloudy 25 -3.9 23 -5 92 92 W 9 15 30.20 1023 8 13 0.00 0.00
12:33 am 00:33 Cloudy 26 -3.3 24 -4.4 92 92 W 10 17 30.18 1022 8 13 0.00 0.00
12:53 am 00:53 Partly Cloudy 25 -3.9 23 -5 92 92 W 9 15 30.14 1021 8 13 0.00 0.00
1:53 am 01:53 Mostly Clear 25 -3.9 23 -5 92 92 W 10 17 30.14 1021 7 11 0.00 0.00
2:12 am 02:12 Mostly Cloudy 25 -3.9 23 -5 92 92 W 10 17 30.21 1023 7 11 0.00 0.00
2:53 am 02:53 Cloudy 28 -2.2 26 -3.3 92 92 NW 13 20 30.16 1022 8 13 0.00 0.00
3:24 am 03:24 Cloudy 29 -1.7 27 -2.8 92 92 WNW 12 19 30.22 1023 8 13 0.00 0.00
3:53 am 03:53 Cloudy 30 -1.1 27 -2.8 88 88 WNW 14 22 30.18 1022 9 14 0.00 0.00
4:53 am 04:53 Cloudy 30 -1.1 28 -2.2 92 92 WNW 7 11 30.19 1022 8 13 0.00 0.00
5:15 am 05:15 Cloudy 30 -1.1 28 -2.2 92 92 WNW 6 9 30.23 1024 9 14 0.00 0.00
5:53 am 05:53 Cloudy 29 -1.7 26 -3.3 89 89 W 13 20 30.20 1023 10 16 0.00 0.00
6:53 am 06:53 Cloudy 28 -2.2 26 -3.3 92 92 NW 9 15 30.20 1023 10 16 0.00 0.00
7:33 am 07:33 Cloudy 28 -2.2 25 -3.9 88 88 WNW 8 13 30.26 1025 10 16 0.00 0.00
7:53 am 07:53 Cloudy 28 -2.2 24 -4.4 85 85 NW 10 17 30.22 1024 10 16 0.00 0.00
8:53 am 08:53 Cloudy 29 -1.7 25 -3.9 85 85 NW 7 11 30.22 1023 10 16 0.00 0.00
9:14 am 09:14 Partly Cloudy 29 -1.7 25 -3.9 85 85 NW 8 13 30.26 1025 10 16 0.00 0.00
9:53 am 09:53 Sunny 30 -1.1 26 -3.3 85 85 N 8 13 30.22 1023 10 16 0.00 0.00
2:53 pm 14:53 Partly Cloudy 40 4.4 33 0.6 76 76 S 6 9 30.14 1021 10 16 0.00 0.00
3:07 pm 15:07 Mostly Cloudy 40 4.4 33 0.6 76 76 VRB 6 9 30.13 1020 10 16 0.00 0.00
3:25 pm 15:25 Partly Cloudy 40 4.4 33 0.6 76 76 S 7 11 30.13 1020 10 16 0.00 0.00
3:53 pm 15:53 Partly Cloudy 40 4.4 33 0.6 76 76 SE 6 9 30.12 1020 10 16 0.00 0.00
4:53 pm 16:53 Sunny 38 3.3 32 0 79 79 SSE 3 6 30.13 1020 10 16 0.00 0.00
5:53 pm 17:53 Clear 33 0.6 31 -0.6 92 92 ESE 9 15 30.11 1020 9 14 0.00 0.00
6:53 pm 18:53 Clear 32 0 30 -1.1 92 92 ESE 9 15 30.09 1019 8 13 0.00 0.00
8:27 pm 20:27 Partly Cloudy with Mist and Fog 30 -1.1 29 -1.7 96 96 SE 10 17 30.17 1022 4 6 0.00 0.00
8:34 pm 20:34 Mostly Cloudy with Mist and Fog 30 -1.1 30 -1.1 100 100 SSE 9 15 30.17 1022 3 4 0.00 0.00
9:41 pm 21:41 Cloudy with Mist and Fog 30 -1.1 29 -1.7 96 96 S 6 9 30.17 1022 1 2 0.00 0.00
10:23 pm 22:23 Mostly Clear with Freezing Fog 29 -1.7 29 -1.7 100 100 SSE 7 11 30.18 1022 1 1 0.00 0.00
10:44 pm 22:44 Mostly Clear with Mist and Fog 29 -1.7 29 -1.7 100 100 SSE 8 13 30.17 1022 1 1 0.00 0.00
10:53 pm 22:53 Mostly Clear with Freezing Fog 29 -1.7 29 -1.7 100 100 S 8 13 30.13 1020 1 1 0.00 0.00
11:03 pm 23:03 Mostly Clear with Freezing Fog 29 -1.7 29 -1.7 100 100 S 9 15 30.17 1022 0 0 0.00 0.00
11:53 pm 23:53 Mostly Clear with Freezing Fog 29 -1.7 28 -2.2 96 96 SSE 7 11 30.13 1020 0 0 0.00 0.00

Powered by AerisWeather